Location: Chèvreville
(49.1099°N, 2.8495°E)
Time: 14:25:58
(UTC+00:00)

SO-50 - Pass Details

Date: 14 December 2023
Orbit: 608 x 661 km, 64.6° (Epoch: 28 February)

Event Time Altitude Azimuth Distance (km) Brightness Sun altitude
Exits shadow 06:37:11 - 331° (NNW) 2,355 ? -9.0°
Reaches altitude 10° 06:38:23 10° 341° (NNW) 2,029 ? -8.9°
Maximum altitude 06:41:22 17° 22° (NNE) 1,610 ? -8.4°
Drops below altitude 10° 06:44:19 10° 63° (ENE) 2,002 ? -8.0°
Sets 06:47:19 0° 84° (E) 2,895 ? -7.5°
